Regional Weather Roundup
Issued by NWS State College, PA

Home | Current Version | Previous Version | Graphics & Text | Print | Product List | Glossary On
Versions: 1 2 3 4 5 6 7 8 9 10 11 12 13 14 15 16 17 18 19 20 21 22 23 24 25 26 27 28 29 30 31 32 33 34 35 36 37 38 39 40 41 42 43 44 45 46 47 48 49 50
000
ASUS41 KCTP 162210
RWRCTP

REGIONAL WEATHER ROUNDUP
NATIONAL WEATHER SERVICE STATE COLLEGE PA
600 PM EDT MON OCT 16 2017

Note: "fair" indicates few or no clouds below 12,000 feet with no
significant weather and/or obstructions to visibility.

* = STATION THAT DOES NOT REPORT PRECIPITATION /E.G. RAIN...SNOW...ETC/
    THUNDER OR FOG.

PAZ002>004-007>009-013>016-020>023-029>032-162300-
WESTERN PENNSYLVANIA

CITY           SKY/WX    TMP DP  RH WIND       PRES   REMARKS
ERIE           PTCLDY    52  33  48 NW8       30.25S
MEADVILLE      MOCLDY    50  37  61 N8        30.25R
FRANKLIN*      MOCLDY    49  32  52 VRB5      30.25R
NEW CASTLE     FAIR      53  34  48 NW10      30.26R
BEAVER COUNTY  MOCLDY    55  34  44 NW6       30.24R
BUTLER*        PTCLDY    51  35  54 VRB3      30.24R
PITTSBURGH INT PTCLDY    56  32  40 N16       30.23R
PITTSBURGH     CLEAR     54  30  40 VRB6G20   30.22R
INDIANA*       MOCLDY    52  37  58 N9        30.24R
LATROBE        PTCLDY    54  34  47 NW8       30.22R
WASHINGTON CO* PTCLDY    55  33  43 NW7       30.26R
$$

PAZ004>006-010>012-017>019-024>028-033>037-041-042-045-046-049>053-162300-
CENTRAL PENNSYLVANIA

CITY           SKY/WX    TMP DP  RH WIND       PRES   REMARKS
BRADFORD       CLEAR     45  30  55 NW12      30.20R
DUBOIS         CLEAR     49  26  41 NW16      30.20R
CLEARFIELD     CLEAR     52  27  38 NW15G23   30.19R
JOHNSTOWN      PTCLDY    48  35  60 NW12      30.19R
ALTOONA        PTCLDY    54  35  48 NW13      30.18S
STATE COLLEGE  PTCLDY    54  28  37 NW12G18   30.16R
WILLIAMSPORT   CLEAR     57  28  33 W12       30.13R
SELINSGROVE    CLEAR     57  34  41 NW10      30.14R
FT INDIANTOWN  CLEAR     58  33  38 NW3       30.12R HAZE
CAPITAL CITY   CLEAR     61  29  29 NW12      30.12R
HARRISBURG     PTCLDY    60  33  36 NW16      30.12R
YORK           CLEAR     58  34  40 NW8G17    30.13R
$$

PAZ038>040-043-044-047-048-054-055-060>062-067>071-162300-
EASTERN PENNSYLVANIA

CITY           SKY/WX    TMP DP  RH WIND       PRES   REMARKS
SCRANTON       PTCLDY    52  32  46 N9        30.13S
MOUNT POCONO   CLEAR     46  31  55 NW12G23   30.09R
ALLENTOWN      CLEAR     55  33  43 N12       30.12R
QUAKERTOWN*    CLEAR     55  36  47 N7        30.12R
READING        CLEAR     56  37  49 N10       30.11R
LANCASTER      CLEAR     57  39  51 N6        30.12R
COATESVILLE    CLEAR     55  36  47 N8        30.13R
POTTSTOWN      CLEAR     55  36  48 N8        30.13R
BLUE BELL      PTCLDY    54  36  50 CALM      30.13R
DOYLESTOWN     CLEAR     55  34  45 N13G20    30.11R
WILLOW GROVE   NOT AVBL
NORTH PHILA    PTCLDY    57  38  48 N12G21    30.12R
PHILADELPHIA   PTCLDY    59  38  45 NW12      30.11R
$$




USA.gov is the U.S. government's official web portal to all federal, state and local government web resources and services.